Location: Cruquius
(52.3348°N, 4.6319°E)
Time: 22:03:48
(UTC+00:00)

NOSS 3-3 (C) - Pass Details

Date: 05 October 2021
Orbit: 801 x 1411 km, 63.4° (Epoch: 05 October)

Event Time Altitude Azimuth Distance (km) Brightness Sun altitude
Rises 18:03:33 0° 314° (NW) 3,942 8.0 -9.1°
Reaches altitude 10° 18:06:09 10° 310° (NW) 3,064 7.5 -9.5°
Maximum altitude 18:13:21 54° 236° (SW) 1,515 5.3 -10.6°
Drops below altitude 10° 18:21:26 10° 162° (SSE) 3,424 6.6 -11.9°
Sets 18:24:30 0° 158° (SSE) 4,435 7.1 -12.3°
